Year,Month,Day,Hour,Minute,Value (Times are PST for windspeed in km/hr)
2006,12,15,00,00,4.70
2006,12,15,00,01,3.20
2006,12,15,00,02,3.60
2006,12,15,00,03,2.80
2006,12,15,00,04,2.30
2006,12,15,00,05,3.00
2006,12,15,00,06,1.80
2006,12,15,00,07,0.70
2006,12,15,00,08,3.00
2006,12,15,00,09,3.50
2006,12,15,00,10,3.00
2006,12,15,00,11,2.60
2006,12,15,00,12,3.80
2006,12,15,00,13,5.80
2006,12,15,00,14,4.50
2006,12,15,00,15,3.80
2006,12,15,00,16,8.00
2006,12,15,00,17,8.40
2006,12,15,00,18,4.20
2006,12,15,00,19,7.20
2006,12,15,00,20,5.60
2006,12,15,00,21,5.90
2006,12,15,00,22,6.10
2006,12,15,00,23,8.80
2006,12,15,00,24,8.20
2006,12,15,00,25,18.10
2006,12,15,00,26,18.60
2006,12,15,00,27,19.30
2006,12,15,00,28,19.40
2006,12,15,00,29,26.50
2006,12,15,00,30,23.20
2006,12,15,00,31,23.40
2006,12,15,00,32,19.90
2006,12,15,00,33,23.90
2006,12,15,00,34,27.00
2006,12,15,00,35,28.50
2006,12,15,00,36,25.10
2006,12,15,00,37,22.50
2006,12,15,00,38,21.70
2006,12,15,00,39,28.00
2006,12,15,00,40,34.40
2006,12,15,00,41,32.20
2006,12,15,00,42,28.80
2006,12,15,00,43,24.10
2006,12,15,00,44,34.70
2006,12,15,00,45,30.50
2006,12,15,00,46,26.40
2006,12,15,00,47,26.40
2006,12,15,00,48,24.10
2006,12,15,00,49,36.70
2006,12,15,00,50,38.10
2006,12,15,00,51,33.80
2006,12,15,00,52,30.90
2006,12,15,00,53,35.20
2006,12,15,00,54,33.90
2006,12,15,00,55,36.90
2006,12,15,00,56,29.90
2006,12,15,00,57,29.70
2006,12,15,00,58,24.60
2006,12,15,00,59,20.60
2006,12,15,01,00,35.30
2006,12,15,01,01,37.80
2006,12,15,01,02,32.50
2006,12,15,01,03,31.20
2006,12,15,01,04,23.50
2006,12,15,01,05,30.70
2006,12,15,01,06,27.90
2006,12,15,01,07,22.20
2006,12,15,01,08,30.80
2006,12,15,01,09,26.30
2006,12,15,01,10,27.40
2006,12,15,01,11,30.90
2006,12,15,01,12,24.20
2006,12,15,01,13,25.30
2006,12,15,01,14,36.20
2006,12,15,01,15,27.50
2006,12,15,01,16,29.50
2006,12,15,01,17,29.80
2006,12,15,01,18,32.60
2006,12,15,01,19,29.00
2006,12,15,01,20,38.90
2006,12,15,01,21,34.80
2006,12,15,01,22,28.40
2006,12,15,01,23,30.50
2006,12,15,01,24,30.00
2006,12,15,01,25,37.80
2006,12,15,01,26,26.60
2006,12,15,01,27,39.90
2006,12,15,01,28,30.70
2006,12,15,01,29,43.40
2006,12,15,01,30,34.50
2006,12,15,01,31,25.70
2006,12,15,01,32,23.60
2006,12,15,01,33,34.90
2006,12,15,01,34,40.40
2006,12,15,01,35,29.50
2006,12,15,01,36,31.60
2006,12,15,01,37,37.10
2006,12,15,01,38,28.10
2006,12,15,01,39,39.10
2006,12,15,01,40,29.00
2006,12,15,01,41,28.50
2006,12,15,01,42,25.00
2006,12,15,01,43,26.20
2006,12,15,01,44,33.60
2006,12,15,01,45,30.20
2006,12,15,01,46,33.30
2006,12,15,01,47,46.20
2006,12,15,01,48,32.50
2006,12,15,01,49,25.70
2006,12,15,01,50,14.60
2006,12,15,01,51,35.50
2006,12,15,01,52,31.50
2006,12,15,01,53,29.80
2006,12,15,01,54,30.10
2006,12,15,01,55,24.50
2006,12,15,01,56,29.60
2006,12,15,01,57,22.40
2006,12,15,01,58,30.70
2006,12,15,01,59,19.80
2006,12,15,02,00,27.20
2006,12,15,02,01,42.30
2006,12,15,02,02,25.50
2006,12,15,02,03,41.00
2006,12,15,02,04,30.20
2006,12,15,02,05,22.30
2006,12,15,02,06,33.00
2006,12,15,02,07,31.00
2006,12,15,02,08,38.20
2006,12,15,02,09,33.20
2006,12,15,02,10,40.30
2006,12,15,02,11,39.90
2006,12,15,02,12,30.80
2006,12,15,02,13,26.20
2006,12,15,02,14,25.30
2006,12,15,02,15,34.10
2006,12,15,02,16,35.20
2006,12,15,02,17,31.50
2006,12,15,02,18,38.70
2006,12,15,02,19,45.10
2006,12,15,02,20,41.70
2006,12,15,02,21,35.70
2006,12,15,02,22,33.80
2006,12,15,02,23,35.70
2006,12,15,02,24,22.50
2006,12,15,02,25,20.10
2006,12,15,02,26,17.90
2006,12,15,02,27,20.20
2006,12,15,02,28,19.10
2006,12,15,02,29,28.30
2006,12,15,02,30,33.30
2006,12,15,02,31,26.20
2006,12,15,02,32,24.60
2006,12,15,02,33,29.50
2006,12,15,02,34,22.00
2006,12,15,02,35,40.70
2006,12,15,02,36,32.60
2006,12,15,02,37,48.70
2006,12,15,02,38,30.60
2006,12,15,02,39,22.50
2006,12,15,02,40,35.80
2006,12,15,02,41,32.00
2006,12,15,02,42,32.70
2006,12,15,02,43,37.70
2006,12,15,02,44,39.60
2006,12,15,02,45,36.20
2006,12,15,02,46,41.00
2006,12,15,02,47,36.00
2006,12,15,02,48,32.20
2006,12,15,02,49,34.50
2006,12,15,02,50,38.10
2006,12,15,02,51,38.70
2006,12,15,02,52,28.80
2006,12,15,02,53,35.30
2006,12,15,02,54,34.00
2006,12,15,02,55,39.60
2006,12,15,02,56,43.00
2006,12,15,02,57,33.80
2006,12,15,02,58,20.50
2006,12,15,02,59,29.00
2006,12,15,03,00,31.50
2006,12,15,03,01,33.00
2006,12,15,03,02,33.80
2006,12,15,03,03,28.60
2006,12,15,03,04,25.30
2006,12,15,03,05,31.50
2006,12,15,03,06,23.50
2006,12,15,03,07,25.00
2006,12,15,03,08,38.70
2006,12,15,03,09,39.50
2006,12,15,03,10,31.70
2006,12,15,03,11,35.10
2006,12,15,03,12,34.10
2006,12,15,03,13,33.70
2006,12,15,03,14,27.20
2006,12,15,03,15,30.60
2006,12,15,03,16,36.00
2006,12,15,03,17,25.50
2006,12,15,03,18,28.90
2006,12,15,03,19,27.10
2006,12,15,03,20,35.20
2006,12,15,03,21,54.00
2006,12,15,08,49,20.00
2006,12,15,08,50,23.10
2006,12,15,08,51,24.20
2006,12,15,08,52,22.40
2006,12,15,08,53,18.90
2006,12,15,08,54,19.20
2006,12,15,08,55,14.80
2006,12,15,08,56,11.80
2006,12,15,08,57,11.70
2006,12,15,08,58,11.50
2006,12,15,08,59,16.00
2006,12,15,09,00,14.20
2006,12,15,09,01,19.90
2006,12,15,09,02,13.40
2006,12,15,09,03,14.60
2006,12,15,09,04,10.90
2006,12,15,09,05,11.40
2006,12,15,09,06,12.00
2006,12,15,09,07,14.40
2006,12,15,09,08,14.70
2006,12,15,09,09,12.20
2006,12,15,09,10,7.20
2006,12,15,09,11,7.90
2006,12,15,09,12,11.90
2006,12,15,09,13,15.20
2006,12,15,09,14,12.10
2006,12,15,09,15,13.00
2006,12,15,09,16,12.80
2006,12,15,09,17,11.30
2006,12,15,09,18,12.70
2006,12,15,09,19,14.60
2006,12,15,09,20,7.60
2006,12,15,09,21,10.90
2006,12,15,09,22,9.80
2006,12,15,09,23,13.00
2006,12,15,09,24,19.20
2006,12,15,09,25,11.30
2006,12,15,09,26,9.80
2006,12,15,09,27,11.80
2006,12,15,09,28,12.60
2006,12,15,09,29,17.30
2006,12,15,09,30,15.80
2006,12,15,09,31,10.50
2006,12,15,09,32,10.80
2006,12,15,09,33,14.30
2006,12,15,09,34,7.70
2006,12,15,09,35,7.40
2006,12,15,09,36,9.90
2006,12,15,09,37,9.60
2006,12,15,09,38,8.30
2006,12,15,09,39,6.10
2006,12,15,09,40,3.60
2006,12,15,09,41,5.00
2006,12,15,09,42,3.50
2006,12,15,09,43,4.20
2006,12,15,09,44,8.20
2006,12,15,09,45,6.70
2006,12,15,09,46,6.30
2006,12,15,09,47,6.70
2006,12,15,09,48,5.60
2006,12,15,09,49,3.40
2006,12,15,09,50,3.10
2006,12,15,09,51,2.70
2006,12,15,09,52,0.80
2006,12,15,09,53,1.50
2006,12,15,09,54,0.80
2006,12,15,09,55,2.20
2006,12,15,09,56,0.90
2006,12,15,09,57,5.60
2006,12,15,09,58,3.80
2006,12,15,09,59,3.20
2006,12,15,10,00,4.30
2006,12,15,10,01,6.80
2006,12,15,10,02,5.60
2006,12,15,10,03,2.50
2006,12,15,10,04,6.30
2006,12,15,10,05,7.70
2006,12,15,10,06,4.80
2006,12,15,10,07,17.90
2006,12,15,10,08,21.80
2006,12,15,10,09,14.30
2006,12,15,10,10,9.80
2006,12,15,10,11,10.40
2006,12,15,10,12,9.40
2006,12,15,10,13,10.80
2006,12,15,10,14,17.40
2006,12,15,10,15,28.90
2006,12,15,10,16,22.80
2006,12,15,10,17,24.20
2006,12,15,10,18,22.40
2006,12,15,10,19,21.40
2006,12,15,10,20,20.60
2006,12,15,10,21,22.90
2006,12,15,10,22,21.40
2006,12,15,10,23,22.90
2006,12,15,10,24,27.20
2006,12,15,10,25,25.60
2006,12,15,10,26,17.60
2006,12,15,10,27,17.70
2006,12,15,10,28,22.50
2006,12,15,10,29,16.40
2006,12,15,10,30,17.00
2006,12,15,10,31,16.50
2006,12,15,10,32,16.90
2006,12,15,10,33,15.00
2006,12,15,10,34,20.40
2006,12,15,10,35,18.60
2006,12,15,10,36,18.30
2006,12,15,10,37,13.30
2006,12,15,10,38,16.00
2006,12,15,10,39,17.10
2006,12,15,10,40,22.40
2006,12,15,10,41,16.90
2006,12,15,10,42,11.80
2006,12,15,10,43,17.60
2006,12,15,10,44,14.30
2006,12,15,10,45,19.60
2006,12,15,10,46,15.90
2006,12,15,10,47,12.20
2006,12,15,10,48,15.20
2006,12,15,10,49,11.90
2006,12,15,10,50,12.10
2006,12,15,10,51,16.60
2006,12,15,10,52,18.80
2006,12,15,10,53,11.80
2006,12,15,10,54,18.80
2006,12,15,10,55,21.90
2006,12,15,10,56,19.10
2006,12,15,10,57,18.40
2006,12,15,10,58,16.90
2006,12,15,10,59,13.80
2006,12,15,11,00,20.50
2006,12,15,11,01,20.20
2006,12,15,11,02,20.40
2006,12,15,11,03,15.70
2006,12,15,11,04,15.60
2006,12,15,11,05,20.40
2006,12,15,11,06,22.10
2006,12,15,11,07,21.80
2006,12,15,11,08,12.60
2006,12,15,11,09,10.60
2006,12,15,11,10,16.20
2006,12,15,11,11,13.80
2006,12,15,11,12,16.60
2006,12,15,11,13,12.50
2006,12,15,11,14,13.70
2006,12,15,11,15,13.00
2006,12,15,11,16,15.40
2006,12,15,11,17,15.20
2006,12,15,11,18,14.30
2006,12,15,11,19,11.70
2006,12,15,11,20,8.60
2006,12,15,11,21,12.00
2006,12,15,11,22,12.10
2006,12,15,11,23,14.70
2006,12,15,11,24,11.00
2006,12,15,11,25,4.80
2006,12,15,11,26,6.60
2006,12,15,11,27,8.30
2006,12,15,11,28,13.60
2006,12,15,11,29,17.20
2006,12,15,11,30,10.30
2006,12,15,11,31,13.20
2006,12,15,11,32,12.10
2006,12,15,11,33,13.20
2006,12,15,11,34,8.80
2006,12,15,11,35,12.30
2006,12,15,11,36,13.00
2006,12,15,11,37,10.90
2006,12,15,11,38,16.00
2006,12,15,11,39,8.90
2006,12,15,11,40,12.10
2006,12,15,11,41,12.60
2006,12,15,11,42,11.10
2006,12,15,11,43,11.80
2006,12,15,11,44,18.60
2006,12,15,11,45,20.70
2006,12,15,11,46,19.70
2006,12,15,11,47,19.60
2006,12,15,11,48,17.10
2006,12,15,11,49,19.00
2006,12,15,11,50,19.60
2006,12,15,11,51,20.80
2006,12,15,11,52,14.00
2006,12,15,11,53,14.10
2006,12,15,11,54,8.90
2006,12,15,11,55,8.60
2006,12,15,11,56,15.50
2006,12,15,11,57,19.90
2006,12,15,11,58,12.10
2006,12,15,11,59,11.20
2006,12,15,12,00,10.00
2006,12,15,12,01,17.60
2006,12,15,12,02,10.00
2006,12,15,12,03,10.90
2006,12,15,12,04,9.50
2006,12,15,12,05,12.70
2006,12,15,12,06,12.90
2006,12,15,12,07,18.10
2006,12,15,12,08,17.50
2006,12,15,12,09,14.80
2006,12,15,12,10,9.00
2006,12,15,12,11,14.20
2006,12,15,12,12,21.30
2006,12,15,12,13,15.00
2006,12,15,12,14,10.70
2006,12,15,12,15,11.80
2006,12,15,12,16,15.60
2006,12,15,12,17,13.20
2006,12,15,12,18,12.90
2006,12,15,12,19,19.50
2006,12,15,12,20,19.50
2006,12,15,12,21,16.80
2006,12,15,12,22,18.70
2006,12,15,12,23,17.60
2006,12,15,12,24,11.30
2006,12,15,12,25,16.70
2006,12,15,12,26,20.90
2006,12,15,12,27,17.60
2006,12,15,12,28,10.00
2006,12,15,12,29,15.90
2006,12,15,12,30,14.60
2006,12,15,12,31,15.50
2006,12,15,12,32,19.60
2006,12,15,12,33,16.30
2006,12,15,12,34,13.60
2006,12,15,12,35,12.40
2006,12,15,12,36,13.00
2006,12,15,12,37,12.70
2006,12,15,12,38,15.20
2006,12,15,12,39,15.70
2006,12,15,12,40,15.60
2006,12,15,12,41,19.10
2006,12,15,12,42,17.50
2006,12,15,12,43,9.90
2006,12,15,12,44,13.70
2006,12,15,12,45,16.70
2006,12,15,12,46,17.10
2006,12,15,12,47,12.30
2006,12,15,12,48,8.10
2006,12,15,12,49,13.40
2006,12,15,12,50,17.90
2006,12,15,12,51,16.50
2006,12,15,12,52,12.90
2006,12,15,12,53,13.40
2006,12,15,12,54,7.20
2006,12,15,12,55,15.70
2006,12,15,12,56,11.30
2006,12,15,12,57,10.30
2006,12,15,12,58,11.50
2006,12,15,12,59,8.00
2006,12,15,13,00,8.70
2006,12,15,13,01,13.90
2006,12,15,13,02,8.20
2006,12,15,13,03,15.70
2006,12,15,13,04,19.30
2006,12,15,13,05,14.90
2006,12,15,13,06,10.50
2006,12,15,13,07,8.40
2006,12,15,13,08,7.60
2006,12,15,13,09,9.30
2006,12,15,13,10,7.20
2006,12,15,13,11,5.20
2006,12,15,13,12,4.80
2006,12,15,13,13,8.20
2006,12,15,13,14,11.80
2006,12,15,13,15,4.70
2006,12,15,13,16,6.60
2006,12,15,13,17,4.00
2006,12,15,13,18,10.00
2006,12,15,13,19,12.60
2006,12,15,13,20,9.50
2006,12,15,13,21,6.20
2006,12,15,13,22,5.20
2006,12,15,13,23,11.00
2006,12,15,13,24,10.90
2006,12,15,13,25,7.80
2006,12,15,13,26,8.30
2006,12,15,13,27,12.40
2006,12,15,13,28,13.00
2006,12,15,13,29,13.50
2006,12,15,13,30,6.00
2006,12,15,13,31,11.00
2006,12,15,13,32,16.20
2006,12,15,13,33,11.00
2006,12,15,13,34,12.40
2006,12,15,13,35,12.40
2006,12,15,13,36,8.60
2006,12,15,13,37,13.50
2006,12,15,13,38,24.20
2006,12,15,13,39,20.80
2006,12,15,13,40,10.70
2006,12,15,13,41,14.20
2006,12,15,13,42,19.90
2006,12,15,13,43,23.30
2006,12,15,13,44,21.30
2006,12,15,13,45,24.60
2006,12,15,13,46,20.40
2006,12,15,13,47,15.00
2006,12,15,13,48,13.20
2006,12,15,13,49,21.30
2006,12,15,13,50,21.50
2006,12,15,13,51,21.30
2006,12,15,13,52,15.00
2006,12,15,13,53,18.70
2006,12,15,13,54,24.00
2006,12,15,13,55,28.00
2006,12,15,13,56,17.80
2006,12,15,13,57,17.70
2006,12,15,13,58,25.20
2006,12,15,13,59,17.90
2006,12,15,14,00,16.60
2006,12,15,14,01,17.10
2006,12,15,14,02,19.60
2006,12,15,14,03,14.60
2006,12,15,14,04,20.10
2006,12,15,14,05,23.50
2006,12,15,14,06,20.80
2006,12,15,14,07,18.40
2006,12,15,14,08,19.80
2006,12,15,14,09,21.80
2006,12,15,14,10,15.20
2006,12,15,14,11,20.80
2006,12,15,14,12,10.30
2006,12,15,14,13,17.50
2006,12,15,14,14,15.50
2006,12,15,14,15,15.50
2006,12,15,14,16,15.20
2006,12,15,14,17,15.50
2006,12,15,14,18,13.70
2006,12,15,14,19,15.60
2006,12,15,14,20,14.40
2006,12,15,14,21,11.60
2006,12,15,14,22,9.10
2006,12,15,14,23,6.40
2006,12,15,14,24,4.10
2006,12,15,14,25,2.50
2006,12,15,14,26,4.60
2006,12,15,14,27,2.30
2006,12,15,14,28,3.20
2006,12,15,14,29,3.30
2006,12,15,14,30,4.50
2006,12,15,14,31,7.80
2006,12,15,14,32,6.40
2006,12,15,14,33,8.10
2006,12,15,14,34,9.20
2006,12,15,14,35,9.90
2006,12,15,14,36,5.60
2006,12,15,14,37,6.60
2006,12,15,14,38,4.60
2006,12,15,14,39,8.50
2006,12,15,14,40,12.60
2006,12,15,14,41,10.90
2006,12,15,14,42,4.10
2006,12,15,14,43,6.00
2006,12,15,14,44,5.70
2006,12,15,14,45,3.00
2006,12,15,14,46,7.40
2006,12,15,14,47,8.40
2006,12,15,14,48,8.90
2006,12,15,14,49,9.40
2006,12,15,14,50,6.90
2006,12,15,14,51,5.20
2006,12,15,14,52,7.80
2006,12,15,14,53,6.20
2006,12,15,14,54,3.10
2006,12,15,14,55,4.00
2006,12,15,14,56,5.10
2006,12,15,14,57,5.30
2006,12,15,14,58,5.70
2006,12,15,14,59,5.60
2006,12,15,15,00,4.70
2006,12,15,15,01,3.50
2006,12,15,15,02,2.30
2006,12,15,15,03,1.50
2006,12,15,15,04,1.70
2006,12,15,15,05,1.70
2006,12,15,15,06,4.10
2006,12,15,15,07,4.80
2006,12,15,15,08,2.30
2006,12,15,15,09,2.50
2006,12,15,15,10,3.00
2006,12,15,15,11,1.40
2006,12,15,15,12,0.60
2006,12,15,15,13,2.40
2006,12,15,15,14,4.50
2006,12,15,15,15,4.50
2006,12,15,15,16,5.30
2006,12,15,15,17,3.00
2006,12,15,15,18,3.20
2006,12,15,15,19,3.80
2006,12,15,15,20,3.10
2006,12,15,15,21,3.20
2006,12,15,15,22,2.90
2006,12,15,15,23,4.00
2006,12,15,15,24,4.30
2006,12,15,15,25,4.30
2006,12,15,15,26,3.80
2006,12,15,15,27,6.60
2006,12,15,15,28,7.00
2006,12,15,15,29,7.70
2006,12,15,15,30,5.40
2006,12,15,15,31,3.90
2006,12,15,15,32,5.50
2006,12,15,15,33,6.40
2006,12,15,15,34,7.50
2006,12,15,15,35,6.70
2006,12,15,15,36,4.30
2006,12,15,15,37,4.50
2006,12,15,15,38,7.30
2006,12,15,15,39,7.10
2006,12,15,15,40,5.50
2006,12,15,15,41,6.10
2006,12,15,15,42,6.90
2006,12,15,15,43,8.90
2006,12,15,15,44,4.10
2006,12,15,15,45,2.70
2006,12,15,15,46,3.50
2006,12,15,15,47,1.80
2006,12,15,15,48,3.10
2006,12,15,15,49,4.50
2006,12,15,15,50,5.10
2006,12,15,15,51,6.00
2006,12,15,15,52,5.80
2006,12,15,15,53,3.70
2006,12,15,15,54,3.40
2006,12,15,15,55,4.70
2006,12,15,15,56,3.90
2006,12,15,15,57,4.40
2006,12,15,15,58,3.50
2006,12,15,15,59,5.10
2006,12,15,16,00,4.10
2006,12,15,16,01,2.60
2006,12,15,16,02,4.10
2006,12,15,16,03,2.70
2006,12,15,16,04,3.70
2006,12,15,16,05,2.70
2006,12,15,16,06,0.10
2006,12,15,16,07,0.00
2006,12,15,16,08,1.10
2006,12,15,16,09,2.60
2006,12,15,16,10,4.50
2006,12,15,16,11,2.30
2006,12,15,16,12,1.90
2006,12,15,16,13,3.80
2006,12,15,16,14,2.50
2006,12,15,16,15,4.60
2006,12,15,16,16,5.50
2006,12,15,16,17,3.30
2006,12,15,16,18,3.90
2006,12,15,16,19,7.80
2006,12,15,16,20,8.40
2006,12,15,16,21,6.90
2006,12,15,16,22,7.90
2006,12,15,16,23,8.40
2006,12,15,16,24,6.30
2006,12,15,16,25,6.20
2006,12,15,16,26,8.20
2006,12,15,16,27,11.10
2006,12,15,16,28,11.50
2006,12,15,16,29,8.70
2006,12,15,16,30,8.70
2006,12,15,16,31,10.60
2006,12,15,16,32,8.90
2006,12,15,16,33,8.50
2006,12,15,16,34,7.30
2006,12,15,16,35,8.60
2006,12,15,16,36,7.00
2006,12,15,16,37,4.80
2006,12,15,16,38,6.30
2006,12,15,16,39,5.80
2006,12,15,16,40,6.10
2006,12,15,16,41,6.00
2006,12,15,16,42,6.90
2006,12,15,16,43,6.50
2006,12,15,16,44,5.80
2006,12,15,16,45,6.00
2006,12,15,16,46,5.10
2006,12,15,16,47,9.70
2006,12,15,16,48,5.60
2006,12,15,16,49,5.00
2006,12,15,16,50,4.70
2006,12,15,16,51,6.40
2006,12,15,16,52,8.30
2006,12,15,16,53,5.10
2006,12,15,16,54,5.10
2006,12,15,16,55,7.30
2006,12,15,16,56,7.60
2006,12,15,16,57,5.90
2006,12,15,16,58,6.30
2006,12,15,16,59,5.50
2006,12,15,17,00,4.60
2006,12,15,17,01,3.00
2006,12,15,17,02,1.40
2006,12,15,17,03,1.50
2006,12,15,17,04,2.30
2006,12,15,17,05,1.40
2006,12,15,17,06,1.00
2006,12,15,17,07,1.40
2006,12,15,17,08,4.80
2006,12,15,17,09,4.00
2006,12,15,17,10,3.90
2006,12,15,17,11,2.10
2006,12,15,17,12,2.40
2006,12,15,17,13,2.00
2006,12,15,17,14,2.00
2006,12,15,17,15,3.40
2006,12,15,17,16,4.20
2006,12,15,17,17,3.20
2006,12,15,17,18,4.90
2006,12,15,17,19,4.50
2006,12,15,17,20,2.50
2006,12,15,17,21,2.90
2006,12,15,17,22,1.90
2006,12,15,17,23,3.00
2006,12,15,17,24,2.00
2006,12,15,17,25,1.90
2006,12,15,17,26,2.50
2006,12,15,17,27,1.50
2006,12,15,17,28,1.80
2006,12,15,17,29,3.20
2006,12,15,17,30,1.90
2006,12,15,17,31,1.60
2006,12,15,17,32,1.50
2006,12,15,17,33,0.70
2006,12,15,17,34,1.50
2006,12,15,17,35,2.00
2006,12,15,17,36,1.60
2006,12,15,17,37,0.20
2006,12,15,17,38,0.00
2006,12,15,17,39,0.20
2006,12,15,17,40,0.30
2006,12,15,17,41,0.10
2006,12,15,17,42,0.00
2006,12,15,17,43,0.00
2006,12,15,17,44,0.00
2006,12,15,17,45,0.00
2006,12,15,17,46,0.00
2006,12,15,17,47,0.00
2006,12,15,17,48,0.30
2006,12,15,17,49,0.00
2006,12,15,17,50,0.00
2006,12,15,17,51,0.00
2006,12,15,17,52,0.10
2006,12,15,17,53,0.40
2006,12,15,17,54,0.00
2006,12,15,17,55,0.00
2006,12,15,17,56,0.00
2006,12,15,17,57,0.00
2006,12,15,17,58,0.00
2006,12,15,17,59,0.00
2006,12,15,18,00,0.00
2006,12,15,18,01,0.00
2006,12,15,18,02,0.00
2006,12,15,18,03,0.00
2006,12,15,18,04,0.00
2006,12,15,18,05,0.00
2006,12,15,18,06,0.00
2006,12,15,18,07,0.00
2006,12,15,18,08,0.00
2006,12,15,18,09,0.00
2006,12,15,18,10,0.00
2006,12,15,18,11,0.00
2006,12,15,18,12,0.00
2006,12,15,18,13,0.00
2006,12,15,18,14,0.00
2006,12,15,18,15,0.00
2006,12,15,18,16,0.00
2006,12,15,18,17,0.00
2006,12,15,18,18,0.00
2006,12,15,18,19,0.00
2006,12,15,18,20,0.00
2006,12,15,18,21,0.00
2006,12,15,18,22,0.00
2006,12,15,18,23,0.00
2006,12,15,18,24,0.30
2006,12,15,18,25,0.30
2006,12,15,18,26,0.00
2006,12,15,18,27,0.00
2006,12,15,18,28,0.00
2006,12,15,18,29,0.10
2006,12,15,18,30,0.10
2006,12,15,18,31,0.20
2006,12,15,18,32,0.50
2006,12,15,18,33,0.10
2006,12,15,18,34,1.00
2006,12,15,18,35,1.10
2006,12,15,18,36,1.60
2006,12,15,18,37,1.10
2006,12,15,18,38,0.10
2006,12,15,18,39,0.20
2006,12,15,18,40,0.00
2006,12,15,18,41,0.00
2006,12,15,18,42,0.10
2006,12,15,18,43,0.00
2006,12,15,18,44,0.00
2006,12,15,18,45,0.00
2006,12,15,18,46,0.00
2006,12,15,18,47,0.00
2006,12,15,18,48,0.00
2006,12,15,18,49,0.00
2006,12,15,18,50,0.00
2006,12,15,18,51,0.00
2006,12,15,18,52,0.00
2006,12,15,18,53,0.00
2006,12,15,18,54,0.00
2006,12,15,18,55,0.00
2006,12,15,18,56,0.00
2006,12,15,18,57,0.00
2006,12,15,18,58,0.20
2006,12,15,18,59,0.00
2006,12,15,19,00,0.00
2006,12,15,19,01,0.00
2006,12,15,19,02,0.30
2006,12,15,19,03,0.00
2006,12,15,19,04,0.00
2006,12,15,19,05,0.00
2006,12,15,19,06,0.00
2006,12,15,19,07,0.00
2006,12,15,19,08,0.00
2006,12,15,19,09,0.00
2006,12,15,19,10,0.00
2006,12,15,19,11,0.00
2006,12,15,19,12,0.00
2006,12,15,19,13,0.00
2006,12,15,19,14,0.00
2006,12,15,19,15,0.30
2006,12,15,19,16,1.90
2006,12,15,19,17,1.60
2006,12,15,19,18,0.90
2006,12,15,19,19,0.70
2006,12,15,19,20,0.30
2006,12,15,19,21,1.30
2006,12,15,19,22,0.20
2006,12,15,19,23,0.00
2006,12,15,19,24,0.50
2006,12,15,19,25,0.90
2006,12,15,19,26,1.10
2006,12,15,19,27,0.40
2006,12,15,19,28,0.20
2006,12,15,19,29,0.00
2006,12,15,19,30,0.00
2006,12,15,19,31,0.00
2006,12,15,19,32,0.00
2006,12,15,19,33,0.00
2006,12,15,19,34,0.00
2006,12,15,19,35,0.00
2006,12,15,19,36,0.00
2006,12,15,19,37,0.00
2006,12,15,19,38,0.00
2006,12,15,19,39,0.00
2006,12,15,19,40,1.80
2006,12,15,19,41,1.80
2006,12,15,19,42,1.30
2006,12,15,19,43,0.00
2006,12,15,19,44,0.90
2006,12,15,19,45,1.90
2006,12,15,19,46,2.70
2006,12,15,19,47,1.40
2006,12,15,19,48,1.90
2006,12,15,19,49,1.60
2006,12,15,19,50,0.30
2006,12,15,19,51,1.90
2006,12,15,19,52,1.50
2006,12,15,19,53,1.30
2006,12,15,19,54,0.10
2006,12,15,19,55,2.30
2006,12,15,19,56,2.00
2006,12,15,19,57,1.00
2006,12,15,19,58,1.30
2006,12,15,19,59,0.50
2006,12,15,20,00,0.00
2006,12,15,20,01,1.00
2006,12,15,20,02,0.30
2006,12,15,20,03,0.10
2006,12,15,20,04,1.30
2006,12,15,20,05,2.00
2006,12,15,20,06,2.00
2006,12,15,20,07,1.80
2006,12,15,20,08,1.60
2006,12,15,20,09,1.40
2006,12,15,20,10,0.70
2006,12,15,20,11,0.20
2006,12,15,20,12,0.40
2006,12,15,20,13,0.50
2006,12,15,20,14,1.30
2006,12,15,20,15,0.60
2006,12,15,20,16,1.70
2006,12,15,20,17,1.20
2006,12,15,20,18,2.20
2006,12,15,20,19,3.10
2006,12,15,20,20,2.10
2006,12,15,20,21,1.50
2006,12,15,20,22,1.80
2006,12,15,20,23,2.10
2006,12,15,20,24,0.90
2006,12,15,20,25,0.70
2006,12,15,20,26,0.40
2006,12,15,20,27,0.10
2006,12,15,20,28,0.00
2006,12,15,20,29,0.00
2006,12,15,20,30,0.00
2006,12,15,20,31,0.20
2006,12,15,20,32,0.20
2006,12,15,20,33,0.10
2006,12,15,20,34,0.60
2006,12,15,20,35,1.50
2006,12,15,20,36,1.80
2006,12,15,20,37,1.00
2006,12,15,20,38,0.60
2006,12,15,20,39,0.50
2006,12,15,20,40,0.00
2006,12,15,20,41,0.80
2006,12,15,20,42,0.00
2006,12,15,20,43,0.00
2006,12,15,20,44,0.00
2006,12,15,20,45,0.00
2006,12,15,20,46,0.10
2006,12,15,20,47,0.20
2006,12,15,20,48,0.00
2006,12,15,20,49,0.50
2006,12,15,20,50,0.20
2006,12,15,20,51,0.10
2006,12,15,20,52,0.60
2006,12,15,20,53,0.60
2006,12,15,20,54,0.60
2006,12,15,20,55,0.50
2006,12,15,20,56,0.50
2006,12,15,20,57,0.00
2006,12,15,20,58,0.40
2006,12,15,20,59,0.10
2006,12,15,21,00,0.40
2006,12,15,21,01,0.30
2006,12,15,21,02,0.30
2006,12,15,21,03,0.00
2006,12,15,21,04,0.00
2006,12,15,21,05,0.00
2006,12,15,21,06,0.00
2006,12,15,21,07,0.00
2006,12,15,21,08,0.00
2006,12,15,21,09,0.00
2006,12,15,21,10,0.00
2006,12,15,21,11,0.00
2006,12,15,21,12,0.00
2006,12,15,21,13,0.00
2006,12,15,21,14,0.00
2006,12,15,21,15,0.00
2006,12,15,21,16,0.00
2006,12,15,21,17,0.00
2006,12,15,21,18,0.00
2006,12,15,21,19,0.00
2006,12,15,21,20,0.00
2006,12,15,21,21,0.00
2006,12,15,21,22,0.00
2006,12,15,21,23,0.00
2006,12,15,21,24,0.00
2006,12,15,21,25,0.00
2006,12,15,21,26,0.00
2006,12,15,21,27,0.00
2006,12,15,21,28,0.00
2006,12,15,21,29,0.00
2006,12,15,21,30,0.00
2006,12,15,21,31,0.00
2006,12,15,21,32,0.00
2006,12,15,21,33,0.00
2006,12,15,21,34,0.00
2006,12,15,21,35,0.00
2006,12,15,21,36,0.00
2006,12,15,21,37,0.00
2006,12,15,21,38,0.00
2006,12,15,21,39,0.00
2006,12,15,21,40,0.00
2006,12,15,21,41,0.00
2006,12,15,21,42,0.00
2006,12,15,21,43,0.00
2006,12,15,21,44,0.00
2006,12,15,21,45,0.00
2006,12,15,21,46,0.00
2006,12,15,21,47,0.00
2006,12,15,21,48,0.00
2006,12,15,21,49,0.00
2006,12,15,21,50,0.00
2006,12,15,21,51,0.00
2006,12,15,21,52,0.00
2006,12,15,21,53,0.00
2006,12,15,21,54,0.00
2006,12,15,21,55,0.00
2006,12,15,21,56,0.00
2006,12,15,21,57,0.00
2006,12,15,21,58,0.00
2006,12,15,21,59,0.00
2006,12,15,22,00,0.00
2006,12,15,22,01,0.00
2006,12,15,22,02,0.00
2006,12,15,22,03,0.00
2006,12,15,22,04,0.00
2006,12,15,22,05,0.00
2006,12,15,22,06,0.00
2006,12,15,22,07,0.00
2006,12,15,22,08,0.00
2006,12,15,22,09,0.00
2006,12,15,22,10,0.00
2006,12,15,22,11,0.00
2006,12,15,22,12,0.00
2006,12,15,22,13,0.00
2006,12,15,22,14,0.00
2006,12,15,22,15,0.00
2006,12,15,22,16,0.00
2006,12,15,22,17,0.00
2006,12,15,22,18,0.00
2006,12,15,22,19,0.00
2006,12,15,22,20,0.00
2006,12,15,22,21,0.00
2006,12,15,22,22,0.00
2006,12,15,22,23,0.00
2006,12,15,22,24,0.60
2006,12,15,22,25,1.90
2006,12,15,22,26,0.60
2006,12,15,22,27,0.60
2006,12,15,22,28,0.80
2006,12,15,22,29,2.80
2006,12,15,22,30,2.60
2006,12,15,22,31,1.40
2006,12,15,22,32,0.10
2006,12,15,22,33,1.10
2006,12,15,22,34,0.10
2006,12,15,22,35,0.00
2006,12,15,22,36,0.10
2006,12,15,22,37,0.90
2006,12,15,22,38,0.10
2006,12,15,22,39,0.10
2006,12,15,22,40,0.30
2006,12,15,22,41,1.10
2006,12,15,22,42,1.20
2006,12,15,22,43,1.40
2006,12,15,22,44,0.40
2006,12,15,22,45,0.00
2006,12,15,22,46,0.80
2006,12,15,22,47,1.30
2006,12,15,22,48,0.80
2006,12,15,22,49,1.70
2006,12,15,22,50,1.50
2006,12,15,22,51,2.30
2006,12,15,22,52,3.10
2006,12,15,22,53,3.80
2006,12,15,22,54,2.80
2006,12,15,22,55,1.80
2006,12,15,22,56,0.20
2006,12,15,22,57,0.00
2006,12,15,22,58,0.00
2006,12,15,22,59,0.00
2006,12,15,23,00,0.00
2006,12,15,23,01,0.10
2006,12,15,23,02,0.40
2006,12,15,23,03,0.00
2006,12,15,23,04,0.20
2006,12,15,23,05,0.00
2006,12,15,23,06,0.00
2006,12,15,23,07,0.10
2006,12,15,23,08,0.90
2006,12,15,23,09,0.20
2006,12,15,23,10,0.30
2006,12,15,23,11,0.00
2006,12,15,23,12,0.00
2006,12,15,23,13,0.10